1530536400.19,48143,16.44,73812.5,11.63,2.31,2.43,0,*47
1530536401.43,48144,16.44,73816.8,11.63,2.69,2.89,0,*4B
1530536402.69,48145,16.44,73816.3,11.61,2.01,2.13,0,*45
1530536403.9,48146,16.38,73812.8,11.63,2.43,2.65,0,*43
1530536405.14,48147,16.44,73816.8,11.63,2.47,2.77,0,*45
1530536406.37,48148,16.44,73816.5,11.63,2.21,2.47,0,*49
1530536407.63,48149,16.44,73816.3,11.61,2.21,2.51,0,*4D
1530536408.86,48150,16.44,73814.3,11.63,2.21,2.55,0,*43
1530536410.1,48151,16.44,73812.5,11.63,2.47,2.81,0,*4B
1530536411.32,48152,16.44,73816.0,11.63,2.65,3.15,0,*44
1530536412.55,48153,16.38,73814.8,11.63,2.09,2.47,0,*49
1530536413.79,48154,16.38,73812.3,11.63,2.25,2.69,0,*4C
1530536415.02,48155,16.38,73814.0,11.63,2.05,2.43,0,*47
1530536416.25,48156,16.44,73816.5,11.63,2.21,2.59,0,*49
1530536417.49,48157,16.44,73814.5,11.65,2.17,2.55,0,*47
1530536418.73,48158,16.44,73814.0,11.65,2.17,2.47,0,*4B
1530536419.96,48159,16.44,73818.5,11.65,2.21,2.55,0,*4C
1530536421.16,48160,16.44,73812.5,11.63,2.05,2.35,0,*40
1530536422.41,48161,16.44,73814.8,11.61,1.89,2.21,0,*41
1530536423.65,48162,16.44,73812.5,11.63,2.21,2.59,0,*4E
1530536424.85,48163,16.44,73814.3,11.63,2.35,2.69,0,*49
1530536426.09,48164,16.44,73818.3,11.63,1.93,2.21,0,*4D
1530536427.35,48165,16.44,73818.0,11.61,1.37,1.55,0,*40
1530536428.58,48166,16.44,73816.5,11.61,1.79,2.05,0,*4F
1530536429.84,48167,16.44,73816.8,11.61,1.67,2.05,0,*41
1530536431.1,48168,16.44,73812.0,11.61,1.93,2.21,0,*43
1530536432.3,48169,16.44,73814.8,11.63,1.93,2.31,0,*41
1530536433.53,48170,16.44,73816.0,11.61,1.93,2.27,0,*4C
1530536434.76,48171,16.44,73814.8,11.59,1.59,2.13,0,*47
1530536436.02,48172,16.44,73818.0,11.61,1.09,1.67,0,*4A
1530536437.27,48173,16.44,73812.0,11.61,1.43,1.89,0,*45
1530536438.5,48174,16.44,73814.0,11.59,1.63,2.21,0,*4A
1530536439.74,48175,16.44,73812.8,11.59,2.01,2.51,0,*4B
1530536440.95,48176,16.44,73814.0,11.59,2.05,2.61,0,*4F
1530536442.16,48177,16.44,73814.3,11.59,2.13,2.65,0,*4D
1530536443.39,48178,16.38,73810.5,11.59,1.67,2.21,0,*42
1530536444.62,48179,16.44,73814.3,11.59,1.67,2.17,0,*46
1530536445.85,48180,16.44,73812.3,11.59,1.43,2.01,0,*41
1530536447.09,48181,16.44,73814.3,11.59,1.37,1.93,0,*4B
1530536448.29,48182,16.44,73816.3,11.57,1.75,2.27,0,*4C
1530536449.53,48183,16.44,73812.5,11.59,2.43,3.03,0,*42
1530536450.71,48184,16.44,73818.8,11.59,1.79,2.31,0,*4F
1530536451.94,48185,16.38,73810.3,11.57,2.27,2.81,0,*43
1530536453.13,48186,16.44,73816.3,11.59,2.27,2.65,0,*44
1530536454.39,48187,16.44,73812.8,11.57,1.97,2.39,0,*4A
1530536455.57,48188,16.44,73812.8,11.59,1.79,2.27,0,*44
1530536456.79,48189,16.38,73808.3,11.59,1.43,1.89,0,*4B
1530536458.0,48190,16.44,73810.0,11.59,1.79,2.21,0,*4B
1530536459.23,48191,16.44,73810.0,11.59,2.13,2.51,0,*42
1530536460.46,48192,16.44,73814.5,11.59,2.77,3.23,0,*47
1530536461.69,48193,16.44,73812.5,11.59,2.17,2.55,0,*40
1530536462.93,48194,16.44,73810.8,11.59,2.21,2.51,0,*46
1530536464.13,48195,16.44,73810.5,11.59,2.61,3.11,0,*46
1530536465.37,48196,16.44,73812.8,11.59,2.89,3.15,0,*47
1530536466.6,48197,16.44,73814.3,11.63,2.77,3.03,0,*49
1530536467.79,48198,16.44,73812.5,11.63,3.25,3.59,0,*4F
1530536469.0,48199,16.44,73814.5,11.63,3.71,4.11,0,*44
1530536470.23,48200,16.44,73814.5,11.63,3.97,4.31,0,*4D
1530536471.44,48201,16.44,73812.0,11.67,3.89,4.23,0,*44
1530536472.65,48202,16.44,73812.3,11.71,3.81,4.15,0,*4D
1530536473.87,48203,16.44,73812.5,11.71,3.81,4.15,0,*4C
1530536475.1,48204,16.44,73812.0,11.71,3.59,3.97,0,*43
1530536476.29,48205,16.44,73812.3,11.73,4.11,4.53,0,*44
1530536477.53,48206,16.44,73810.0,11.75,4.45,4.75,0,*44
1530536478.74,48207,16.44,73814.0,11.81,4.53,4.79,0,*45
1530536479.98,48208,16.44,73814.5,11.81,4.67,5.01,0,*43
1530536481.16,48209,16.44,73812.3,11.89,4.81,5.15,0,*47
1530536482.39,48210,16.44,73812.5,11.89,4.93,5.27,0,*4D
1530536483.6,48211,16.44,73814.5,11.89,4.71,5.15,0,*41
1530536484.78,48212,16.44,73812.8,11.93,4.89,5.33,0,*4A
1530536486.03,48213,16.44,73814.0,11.95,4.93,5.23,0,*47
1530536487.29,48214,16.44,73810.3,11.97,4.59,4.93,0,*4E
1530536488.5,48215,16.44,73812.5,11.99,4.19,4.63,0,*4A
1530536489.72,48216,16.44,73814.8,12.01,4.53,4.85,0,*4D
1530536490.97,48217,16.44,73814.8,12.05,4.67,5.05,0,*46
1530536492.21,48218,16.44,73814.0,12.05,4.79,5.11,0,*43
1530536493.45,48219,16.44,73812.5,12.07,4.67,4.93,0,*44
1530536494.66,48220,16.44,73812.8,12.11,4.41,4.75,0,*45
1530536495.89,48221,16.44,73812.3,12.11,3.45,3.67,0,*43
1530536497.1,48222,16.44,73814.3,12.11,3.45,3.81,0,*48
1530536498.36,48223,16.44,73814.3,12.13,3.07,3.19,0,*4C
1530536499.59,48224,16.44,73808.5,12.11,2.89,3.07,0,*41
1530536500.8,48225,16.44,73814.8,12.11,2.61,2.77,0,*40
1530536502.06,48226,16.44,73814.3,12.09,3.15,3.37,0,*4D
1530536503.26,48227,16.44,73814.0,12.09,3.29,3.63,0,*42
1530536504.51,48228,16.44,73814.0,12.09,3.37,3.53,0,*41
1530536505.77,48229,16.44,73812.0,12.09,2.25,2.47,0,*46
1530536507.0,48230,16.44,73814.0,12.09,2.31,2.59,0,*44
1530536508.2,48231,16.44,73816.0,12.07,2.59,2.95,0,*45
1530536509.43,48232,16.44,73814.5,12.09,2.81,2.91,0,*49
1530536510.64,48233,16.44,73814.0,12.09,3.29,3.55,0,*42
1530536511.86,48234,16.44,73810.5,12.07,3.45,3.79,0,*4F
1530536513.09,48235,16.44,73808.0,12.07,3.19,3.37,0,*4D
1530536514.3,48236,16.44,73812.0,12.07,2.91,3.03,0,*48
1530536515.53,48237,16.44,73814.3,12.07,2.81,2.85,0,*47
1530536516.73,48238,16.44,73816.0,12.07,2.85,2.95,0,*4D
1530536517.99,48239,16.44,73812.3,12.05,2.69,2.81,0,*49
1530536519.2,48240,16.44,73812.0,12.01,2.61,2.65,0,*41
1530536520.46,48241,16.44,73814.8,12.05,2.39,2.55,0,*4A
1530536521.72,48242,16.44,73812.0,12.01,1.93,2.13,0,*4C
1530536522.98,48243,16.44,73812.3,12.01,2.73,2.89,0,*43
1530536524.19,48244,16.44,73812.5,11.99,3.19,3.29,0,*40
1530536525.42,48245,16.44,73810.8,11.99,3.23,3.49,0,*4E
1530536526.64,48246,16.44,73814.3,11.99,3.07,3.29,0,*4D
1530536527.89,48247,16.44,73814.5,11.97,2.69,2.85,0,*4C
1530536529.07,48248,16.44,73818.5,11.99,3.29,3.55,0,*44
1530536530.28,48249,16.44,73814.8,11.99,2.95,3.23,0,*42
1530536531.48,48250,16.44,73814.0,11.99,3.37,3.59,0,*4E
1530536532.69,48251,16.44,73816.3,11.99,3.45,3.59,0,*4A
1530536533.9,48252,16.44,73814.8,11.99,2.95,3.19,0,*41
1530536535.14,48253,16.44,73814.3,12.01,3.11,3.29,0,*4C
1530536536.37,48254,16.44,73812.3,12.01,2.61,2.73,0,*43
1530536537.58,48255,16.44,73810.8,11.99,2.99,3.23,0,*43
1530536538.78,48256,16.44,73812.5,11.99,2.89,2.95,0,*4D
1530536540.03,48257,16.44,73812.8,11.97,2.85,3.07,0,*44
1530536541.25,48258,16.44,73814.5,11.99,3.23,3.29,0,*44
1530536542.48,48259,16.44,73814.8,11.99,3.79,4.01,0,*47
1530536543.67,48260,16.44,73810.3,11.99,3.59,3.81,0,*40
1530536544.87,48261,16.44,73812.0,11.99,3.19,3.29,0,*47
1530536546.08,48262,16.44,73812.8,11.99,3.19,3.29,0,*44
1530536547.34,48263,16.44,73814.3,12.01,3.11,3.19,0,*4C
1530536548.54,48264,16.44,73808.0,11.99,3.59,3.67,0,*4C
1530536549.75,48265,16.44,73812.5,11.99,4.05,4.15,0,*41
1530536550.99,48266,16.44,73812.5,12.01,3.89,4.01,0,*46
1530536552.26,48267,16.44,73812.0,12.01,3.67,3.79,0,*4F
1530536553.49,48268,16.44,73814.5,12.05,3.71,3.81,0,*44
1530536554.72,48269,16.44,73812.5,12.01,3.55,3.71,0,*48
1530536555.93,48270,16.44,73814.3,12.05,3.93,4.07,0,*48
1530536557.17,48271,16.44,73810.8,12.01,3.79,3.93,0,*43
1530536558.41,48272,16.44,73808.5,12.05,4.05,4.15,0,*41
1530536559.64,48273,16.44,73814.3,12.05,3.97,4.07,0,*4F
1530536560.82,48274,16.44,73810.8,12.07,4.23,4.33,0,*45
1530536562.05,48275,16.44,73814.0,12.09,4.49,4.67,0,*47
1530536563.26,48276,16.44,73810.5,12.09,4.33,4.37,0,*4C
1530536564.47,48277,16.44,73812.5,12.11,4.23,4.31,0,*43
1530536565.66,48278,16.44,73812.8,12.11,4.41,4.53,0,*4C
1530536566.89,48279,16.44,73814.3,12.13,4.53,4.59,0,*46
1530536568.07,48280,16.44,73810.8,12.11,4.37,4.49,0,*41
1530536569.3,48281,16.44,73812.0,12.13,4.49,4.59,0,*4A
1530536570.57,48282,16.44,73814.3,12.13,4.59,4.71,0,*42
1530536571.78,48283,16.44,73810.5,12.13,4.37,4.41,0,*48
1530536572.99,48284,16.44,73812.5,12.15,4.27,4.31,0,*4F
1530536574.18,48285,16.44,73814.3,12.19,4.37,4.49,0,*4C
1530536575.43,48286,16.44,73812.0,12.19,4.71,4.75,0,*42
1530536576.61,48287,16.44,73812.3,12.19,4.23,4.27,0,*43
1530536577.81,48288,16.44,73814.3,12.21,4.27,4.27,0,*43
1530536579.02,48289,16.44,73814.0,12.19,4.63,4.81,0,*45
1530536580.23,48290,16.44,73814.8,12.21,5.11,5.23,0,*4B
1530536581.44,48291,16.44,73814.3,12.23,5.55,5.67,0,*48
1530536582.64,48292,16.44,73810.3,12.27,5.59,5.73,0,*46
1530536583.84,48293,16.44,73812.5,12.31,5.63,5.73,0,*49
1530536585.05,48294,16.44,73814.0,12.33,5.23,5.41,0,*49
1530536586.27,48295,16.44,73810.3,12.35,6.03,6.17,0,*4F
1530536587.51,48296,16.44,73808.8,12.37,6.33,6.43,0,*4C
1530536588.74,48297,16.44,73812.0,12.39,6.43,6.53,0,*45
1530536589.94,48298,16.44,73814.0,12.43,6.69,7.05,0,*4D
1530536591.17,48299,16.44,73814.0,12.49,6.83,7.11,0,*47
1530536592.4,48300,16.44,73812.8,12.53,7.15,7.33,0,*43
1530536593.63,48301,16.44,73814.3,12.57,6.69,6.83,0,*46
1530536594.84,48302,16.44,73814.3,12.59,5.85,6.03,0,*42
1530536596.07,48303,16.44,73812.5,12.63,6.17,6.25,0,*46
1530536597.25,48304,16.44,73814.5,12.65,6.79,7.01,0,*48
1530536598.48,48305,16.44,73812.3,12.69,6.87,7.23,0,*44
1530536599.68,48306,16.44,73810.3,12.75,6.93,7.05,0,*4B
1530536600.89,48307,16.44,73814.8,12.81,6.87,7.05,0,*44
1530536602.09,48308,16.44,73814.0,12.83,7.33,7.59,0,*4E
1530536603.3,48309,16.44,73814.0,12.85,7.61,7.79,0,*4C
1530536604.55,48310,16.44,73810.5,12.91,7.87,7.91,0,*4F
1530536605.76,48311,16.44,73812.8,12.97,8.01,8.05,0,*4B
1530536607.0,48312,16.44,73810.8,13.01,8.09,8.13,0,*49
1530536608.21,48313,16.44,73814.3,13.09,8.61,8.61,0,*4B
1530536609.45,48314,16.44,73814.3,13.13,9.03,8.97,0,*4B
1530536610.69,48315,16.44,73814.8,13.21,9.07,8.93,0,*4B
1530536611.94,48316,16.44,73810.8,13.31,9.57,9.57,0,*45
1530536613.21,48317,16.44,73812.8,13.35,9.77,9.81,0,*49
1530536614.41,48318,16.44,73812.3,13.45,9.57,9.63,0,*4F
1530536615.58,48319,16.44,73810.3,13.53,9.29,9.33,0,*45
1530536616.79,48320,16.44,73810.5,13.63,9.29,9.39,0,*46
1530536617.98,48321,16.44,73812.0,13.67,9.47,9.67,0,*40
1530536619.19,48322,16.44,73812.5,13.75,9.43,9.57,0,*47
1530536620.43,48323,16.44,73812.5,13.85,9.19,9.43,0,*43
1530536621.68,48324,16.44,73810.0,13.91,9.91,10.23,0,*7F
1530536622.89,48325,16.44,73810.0,13.97,9.53,9.91,0,*47
1530536624.1,48326,16.44,73812.5,14.11,10.33,10.89,0,*42
1530536625.36,48327,16.44,73812.5,14.19,10.37,10.99,0,*4E
1530536626.58,48328,16.44,73808.8,14.27,9.85,10.51,0,*79
1530536627.83,48329,16.44,73812.8,14.37,9.89,10.55,0,*71
1530536629.06,48330,16.44,73808.8,14.43,9.89,10.57,0,*78
1530536630.3,48331,16.44,73810.0,14.55,9.29,10.27,0,*73
1530536631.51,48332,16.44,73812.3,14.61,8.59,9.63,0,*49
1530536632.75,48333,16.44,73810.0,14.67,8.93,10.05,0,*70
1530536633.97,48334,16.44,73810.5,14.77,9.03,10.27,0,*7E
1530536635.21,48335,16.44,73814.3,14.81,9.11,10.41,0,*75
1530536636.39,48336,16.44,73814.8,14.89,8.87,9.99,0,*4D
1530536637.63,48337,16.44,73810.8,14.95,8.71,9.71,0,*4E
1530536638.85,48338,16.44,73814.8,15.03,8.27,9.03,0,*49
1530536640.05,48339,16.44,73814.5,15.09,8.09,8.75,0,*4E
1530536641.31,48340,16.44,73808.3,15.11,8.47,9.01,0,*41
1530536642.49,48341,16.44,73814.8,15.23,9.21,9.63,0,*44
1530536643.7,48342,16.44,73808.5,15.27,7.33,7.69,0,*4A
1530536644.93,48343,16.44,73812.0,15.33,7.11,7.55,0,*41
1530536646.17,48344,16.44,73812.5,15.37,7.27,7.79,0,*49
1530536647.37,48345,16.44,73818.5,15.43,6.83,7.23,0,*4B
1530536648.57,48346,16.44,73812.5,15.45,5.29,5.67,0,*4F
1530536649.81,48347,16.44,73812.5,15.49,4.59,4.93,0,*4E
1530536651.03,48348,16.44,73814.3,15.51,4.81,5.23,0,*47
1530536652.24,48349,16.44,73812.8,15.49,4.37,4.75,0,*40
1530536653.5,48350,16.44,73808.3,15.55,3.37,3.79,0,*49
1530536654.71,48351,16.44,73808.5,15.53,3.15,3.81,0,*49
1530536655.98,48352,16.44,73812.0,15.55,3.15,4.01,0,*43
1530536657.22,48353,16.44,73810.5,15.55,3.15,3.89,0,*45
1530536658.4,48354,16.44,73812.3,15.57,2.31,3.29,0,*4D
1530536659.62,48355,16.44,73810.8,15.57,1.01,1.85,0,*48
1530536660.85,48356,16.44,73810.8,15.57,1.25,2.47,0,*40
1530536662.09,48357,16.44,73814.0,15.55,1.75,3.07,0,*43
1530536663.35,48358,16.44,73812.8,15.55,2.01,3.41,0,*4E
1530536664.55,48359,16.44,73812.0,15.53,2.73,4.15,0,*4A
1530536665.78,48360,16.44,73812.8,15.55,3.03,4.11,0,*44
1530536667.05,48361,16.44,73814.0,15.55,3.67,4.71,0,*41
1530536668.26,48362,16.44,73812.8,15.57,2.31,3.37,0,*47
1530536669.48,48363,16.44,73814.5,15.59,2.99,4.37,0,*4D
1530536670.68,48364,16.44,73814.0,15.57,2.85,4.33,0,*4D
1530536671.92,48365,16.44,73814.8,15.59,1.85,3.55,0,*46
1530536673.15,48366,16.44,73812.5,15.59,2.27,4.05,0,*4C
1530536674.37,48367,16.44,73814.8,15.61,3.75,5.15,0,*40
1530536675.58,48368,16.44,73812.5,15.67,4.23,5.59,0,*45
1530536676.79,48369,16.44,73814.8,15.69,4.71,6.03,0,*41
1530536678.01,48370,16.44,73814.5,15.75,5.49,6.51,0,*49
1530536679.25,48371,16.44,73812.8,15.81,4.97,5.99,0,*46
1530536680.45,48372,16.44,73812.3,15.85,3.63,4.23,0,*4D
1530536681.64,48373,16.44,73810.8,15.91,6.11,6.61,0,*4D
1530536682.85,48374,16.44,73810.8,15.95,6.51,6.83,0,*46
1530536684.03,48375,16.44,73814.3,15.99,6.11,6.33,0,*44
1530536685.24,48376,16.44,73814.5,16.05,7.51,7.29,0,*4E
1530536686.43,48377,16.44,73814.8,16.19,6.33,6.29,0,*46
1530536687.63,48378,16.44,73814.0,16.23,5.67,5.59,0,*46
1530536688.82,48379,16.44,73814.5,16.27,5.41,5.37,0,*4F
1530536690.06,48380,16.44,73816.5,16.33,5.89,5.67,0,*4D
1530536691.31,48381,16.44,73818.3,16.41,5.19,4.97,0,*4E
1530536692.49,48382,16.44,73812.5,16.45,5.29,5.33,0,*45
1530536693.7,48383,16.44,73814.5,16.53,6.47,6.29,0,*40
1530536694.93,48384,16.44,73812.0,16.61,6.69,5.89,0,*43
1530536696.16,48385,16.44,73814.3,16.67,7.55,6.61,0,*4F
1530536697.4,48386,16.44,73812.8,16.77,7.45,6.51,0,*4F
1530536698.66,48387,16.44,73814.3,16.81,5.89,5.05,0,*47
1530536699.85,48388,16.44,73814.0,16.87,5.11,4.53,0,*4D
1530536701.07,48389,16.44,73812.8,16.91,4.59,4.37,0,*44
1530536702.25,48390,16.44,73814.3,16.99,4.49,4.45,0,*40
1530536703.48,48391,16.44,73814.5,17.01,4.97,5.15,0,*46
1530536704.67,48392,16.44,73812.8,17.07,4.37,4.85,0,*41
1530536705.9,48393,16.44,73814.3,17.13,4.97,5.51,0,*47
1530536707.12,48394,16.44,73816.8,17.19,4.41,5.23,0,*44
1530536708.36,48395,16.44,73814.8,17.27,4.31,5.19,0,*46
1530536709.57,48396,16.44,73812.8,17.29,3.41,4.53,0,*44
1530536710.79,48397,16.44,73814.8,17.37,3.15,4.57,0,*4F
1530536712.0,48398,16.44,73812.3,17.41,3.19,4.57,0,*4D
1530536713.24,48399,16.44,73814.3,17.45,1.67,2.89,0,*46
1530536714.5,48400,16.44,73812.0,17.51,1.97,3.41,0,*4E
1530536715.76,48401,16.44,73814.8,17.55,2.17,3.53,0,*43
1530536717.02,48402,16.44,73812.3,17.59,2.55,4.31,0,*49
1530536718.25,48403,16.44,73816.3,17.65,1.89,4.01,0,*46
1530536719.46,48404,16.44,73812.3,17.69,1.85,3.89,0,*46
1530536720.74,48405,16.44,73816.0,17.73,1.13,3.41,0,*47
1530536722.0,48406,16.44,73814.5,17.77,0.95,3.33,0,*7A
1530536723.2,48407,16.44,73814.5,17.83,1.25,3.85,0,*47
1530536724.44,48408,16.44,73814.3,17.87,2.25,4.67,0,*44
1530536725.65,48409,16.44,73814.8,17.95,2.51,4.85,0,*49
1530536726.86,48410,16.44,73812.0,18.03,3.25,5.27,0,*4A
1530536728.09,48411,16.44,73812.8,18.07,3.55,4.97,0,*42
1530536729.33,48412,16.44,73814.5,18.17,2.89,4.31,0,*4C
1530536730.57,48413,16.44,73812.8,18.17,2.01,3.71,0,*4E
1530536731.78,48414,16.44,73812.8,18.21,1.43,3.93,0,*45
1530536733.03,48415,16.44,73812.0,18.23,0.37,3.49,0,*73
1530536734.24,48416,16.44,73810.8,18.27,-1.75,1.79,0,*6F
1530536735.48,48417,16.44,73814.0,18.29,-2.47,1.09,0,*65
1530536736.73,48418,16.44,73814.3,18.31,-4.77,-1.01,0,*43
1530536737.96,48419,16.44,73814.0,18.31,-3.23,0.59,0,*55
1530536739.16,48420,16.44,73814.3,18.33,-4.09,-0.15,0,*77
1530536740.35,48421,16.44,73812.5,18.33,-4.61,-0.37,0,*78
1530536741.53,48422,16.44,73812.0,18.33,-4.13,0.05,0,*62
1530536742.75,48423,16.44,73812.5,18.35,-4.57,-0.41,0,*78
1530536743.96,48424,16.44,73810.0,18.35,-4.99,-0.77,0,*78
1530536745.2,48425,16.44,73812.0,18.35,-5.77,-1.51,0,*4D
1530536746.43,48426,16.44,73808.8,18.35,-4.93,-0.65,0,*73
1530536747.67,48427,16.5,73814.3,18.35,-6.01,-1.95,0,*45
1530536748.9,48428,16.44,73814.8,18.35,-5.39,-1.09,0,*47
1530536750.12,48429,16.44,73808.3,18.35,-6.85,-2.31,0,*4A
1530536751.34,48430,16.5,73814.8,18.37,-6.09,-1.59,0,*49
1530536752.56,48431,16.44,73814.5,18.33,-5.93,-1.25,0,*47
1530536753.78,48432,16.44,73808.0,18.37,-6.39,-1.59,0,*48
1530536755.0,48433,16.44,73810.5,18.35,-4.93,-0.29,0,*7F
1530536756.26,48434,16.44,73812.3,18.37,-3.67,0.87,0,*5F
1530536757.5,48435,16.44,73808.8,18.43,-5.69,-0.85,0,*7A
1530536758.73,48436,16.44,73808.5,18.43,-5.81,-0.97,0,*7C
1530536759.92,48437,16.44,73814.3,18.43,-6.47,-1.55,0,*4B
1530536761.13,48438,16.44,73808.3,18.45,-5.51,-0.65,0,*74
1530536762.31,48439,16.44,73814.0,18.47,-5.47,-0.53,0,*75
1530536763.58,48440,16.44,73812.0,18.49,-5.89,-1.01,0,*41
1530536764.76,48441,16.44,73814.8,18.51,-5.43,-0.45,0,*7E
1530536765.98,48442,16.44,73812.5,18.51,-5.27,-0.37,0,*7A
1530536767.19,48443,16.44,73812.8,18.55,-4.85,-0.33,0,*72
1530536768.39,48444,16.44,73812.8,18.59,-4.29,0.25,0,*55
1530536769.6,48445,16.44,73812.5,18.59,-4.13,0.51,0,*5E
1530536770.8,48446,16.44,73814.5,18.65,-4.65,0.05,0,*62
1530536772.01,48447,16.44,73810.5,18.65,-5.43,-0.69,0,*71
1530536773.26,48448,16.44,73812.3,18.69,-6.63,-1.87,0,*42
1530536774.48,48449,16.44,73810.0,18.69,-6.09,-1.39,0,*4A
1530536775.68,48450,16.44,73814.5,18.69,-5.39,-0.69,0,*76
1530536776.86,48451,16.44,73810.5,18.73,-5.43,-0.81,0,*77
1530536778.08,48452,16.44,73812.0,18.73,-6.47,-1.95,0,*47
1530536779.35,48453,16.5,73816.3,18.75,-5.69,-1.35,0,*45
1530536780.57,48454,16.44,73812.3,18.75,-7.15,-2.87,0,*41
1530536781.81,48455,16.44,73812.3,18.77,-5.85,-1.67,0,*44
1530536783.06,48456,16.5,73814.5,18.81,-5.07,-1.35,0,*43
1530536784.28,48457,16.5,73816.3,18.85,-6.97,-3.07,0,*4F
1530536785.48,48458,16.5,73812.5,18.81,-8.33,-4.57,0,*46
1530536786.71,48459,16.5,73812.8,18.81,-7.05,-3.55,0,*48
1530536787.91,48460,16.5,73812.0,18.81,-6.47,-2.87,0,*4B
1530536789.14,48461,16.5,73814.3,18.85,-5.39,-1.99,0,*48
1530536790.34,48462,16.44,73810.0,18.89,-5.51,-2.19,0,*42
1530536791.61,48463,16.5,73812.0,18.91,-5.89,-2.59,0,*4B
1530536792.86,48464,16.5,73814.0,18.91,-5.97,-2.63,0,*4A
1530536794.08,48465,16.5,73812.3,18.95,-6.31,-3.03,0,*47
1530536795.33,48466,16.5,73814.0,18.95,-7.73,-4.49,0,*4A
1530536796.52,48467,16.5,73812.8,18.97,-9.27,-6.05,0,*4C
1530536797.71,48468,16.5,73812.8,18.93,-9.97,-6.55,0,*49
1530536798.91,48469,16.44,73810.0,18.93,-8.75,-5.43,0,*41
1530536800.1,48470,16.5,73812.0,18.93,-9.67,-6.31,0,*4D
1530536801.32,48471,16.44,73808.3,18.93,-8.29,-4.73,0,*43
1530536802.56,48472,16.44,73810.5,18.95,-7.77,-4.45,0,*47
1530536803.81,48473,16.5,73812.0,18.95,-7.77,-4.37,0,*43
1530536805.05,48474,16.5,73812.5,18.95,-8.59,-5.15,0,*46
1530536806.28,48475,16.5,73812.5,18.93,-8.45,-5.07,0,*4F
1530536807.52,48476,16.5,73814.0,18.95,-7.87,-4.93,0,*47
1530536808.75,48477,16.44,73808.5,18.97,-6.97,-4.61,0,*49
1530536809.97,48478,16.44,73810.8,18.97,-6.39,-4.81,0,*4C
1530536811.22,48479,16.5,73814.3,18.99,-6.01,-4.69,0,*4E
1530536812.47,48480,16.5,73816.0,19.01,-6.39,-5.19,0,*45
1530536813.68,48481,16.5,73812.5,19.03,-8.03,-6.85,0,*47
1530536814.9,48482,16.44,73810.0,19.07,-9.37,-8.67,0,*44
1530536816.13,48483,16.5,73814.0,19.07,-9.53,-9.15,0,*43
1530536817.36,48484,16.5,73814.5,19.03,-10.97,-11.33,0,*4D
1530536818.62,48485,16.5,73816.3,19.01,-11.15,-11.29,0,*4E
1530536819.88,48486,16.5,73814.8,19.01,-13.61,-14.23,0,*43
1530536821.14,48487,16.5,73816.5,18.95,-14.75,-15.29,0,*47
1530536822.37,48488,16.5,73812.3,18.93,-13.79,-14.29,0,*44
1530536823.58,48489,16.5,73812.5,18.89,-14.65,-15.15,0,*4A
1530536824.79,48490,16.5,73814.0,18.85,-14.29,-15.15,0,*46
1530536826.08,48491,16.5,73808.0,18.79,-15.85,-17.03,0,*46
1530536827.28,48492,16.5,73812.8,18.73,-15.07,-16.37,0,*43
1530536828.57,48493,16.5,73810.5,18.71,-14.47,-15.81,0,*4B
1530536829.81,48494,16.5,73812.5,18.67,-14.51,-16.03,0,*45
1530536831.09,48495,16.5,73808.0,18.65,-15.43,-17.21,0,*45
1530536832.31,48496,16.5,73810.0,18.59,-14.79,-16.55,0,*43
1530536833.54,48497,16.5,73814.5,18.55,-16.23,-18.11,0,*4D
1530536834.8,48498,16.5,73814.0,18.49,-16.83,-18.93,0,*4F
1530536836.05,48499,16.5,73812.3,18.45,-17.07,-19.47,0,*47
1530536837.3,48500,16.5,73814.5,18.43,-17.21,-19.65,0,*44
1530536838.53,48501,16.5,73812.8,18.37,-18.21,-20.69,0,*4F
1530536839.81,48502,16.5,73810.5,18.31,-17.45,-19.65,0,*41
1530536841.07,48503,16.5,73812.8,18.27,-18.21,-20.83,0,*48
1530536842.28,48504,16.5,73814.5,18.21,-19.51,-22.11,0,*46
1530536843.54,48505,16.5,73816.8,18.13,-18.93,-21.83,0,*41
1530536844.75,48506,16.5,73818.8,18.09,-16.89,-19.51,0,*48
1530536845.99,48507,16.5,73818.3,18.09,-14.51,-16.89,0,*44
1530536847.24,48508,16.5,73814.0,18.05,-14.79,-17.63,0,*48
1530536848.51,48509,16.5,73816.3,18.07,-14.05,-16.75,0,*46
1530536849.74,48510,16.5,73816.3,18.05,-15.11,-17.97,0,*45
1530536850.98,48511,16.5,73812.8,18.05,-15.25,-17.97,0,*43
1530536852.22,48512,16.5,73816.3,18.03,-14.47,-17.35,0,*4B
1530536853.47,48513,16.5,73814.3,18.05,-14.23,-17.07,0,*4F
1530536854.73,48514,16.5,73812.5,18.05,-13.29,-16.13,0,*41
1530536855.97,48515,16.5,73818.0,18.05,-13.11,-15.81,0,*43
1530536857.23,48516,16.5,73818.0,18.07,-12.71,-15.53,0,*4A
1530536858.46,48517,16.5,73814.3,18.07,-13.65,-16.45,0,*4B
1530536859.73,48518,16.5,73818.0,18.07,-12.53,-15.25,0,*45
1530536861.01,48519,16.5,73818.0,18.11,-11.63,-14.47,0,*46
1530536862.23,48520,16.5,73816.8,18.17,-12.29,-15.11,0,*45
1530536863.47,48521,16.5,73814.3,18.17,-12.83,-15.71,0,*42
1530536864.71,48522,16.5,73814.8,18.17,-14.11,-17.21,0,*4B
1530536865.94,48523,16.5,73814.3,18.17,-14.29,-17.21,0,*41
1530536867.16,48524,16.5,73814.0,18.17,-14.37,-17.35,0,*4C
1530536868.37,48525,16.5,73818.8,18.17,-15.15,-18.21,0,*46
1530536869.58,48526,16.5,73814.3,18.13,-15.29,-18.17,0,*4B
1530536870.79,48527,16.5,73814.3,18.13,-16.83,-20.09,0,*4D
1530536872.03,48528,16.5,73818.5,18.09,-17.45,-20.63,0,*4E
1530536873.3,48529,16.5,73812.5,18.07,-17.59,-20.63,0,*4C
1530536874.53,48530,16.5,73818.5,18.05,-17.17,-20.09,0,*40
1530536875.79,48531,16.5,73816.3,18.01,-16.83,-19.65,0,*49
1530536877.04,48532,16.5,73814.3,18.01,-15.81,-18.65,0,*4A
1530536878.32,48533,16.5,73816.3,18.01,-17.59,-20.99,0,*44
1530536879.55,48534,16.5,73812.8,17.97,-19.17,-22.87,0,*4A
1530536880.76,48535,16.5,73814.8,17.91,-19.95,-23.75,0,*4B
1530536882.03,48536,16.5,73808.8,17.85,-20.79,-24.67,0,*41
1530536883.28,48537,16.5,73812.5,17.77,-20.39,-24.11,0,*48
1530536884.53,48538,16.5,73812.8,17.75,-19.81,-23.85,0,*46
1530536885.75,48539,16.5,73810.0,17.69,-20.25,-23.95,0,*4F
1530536886.96,48540,16.5,73808.8,17.61,-18.73,-22.57,0,*4E
1530536888.19,48541,16.5,73812.5,17.61,-16.09,-19.03,0,*45
1530536889.39,48542,16.5,73810.5,17.61,-14.69,-17.49,0,*42
1530536890.66,48543,16.5,73808.0,17.61,-14.43,-17.11,0,*46
1530536891.86,48544,16.5,73810.5,17.61,-13.69,-16.37,0,*4B
1530536893.14,48545,16.5,73808.8,17.63,-14.15,-17.07,0,*46
1530536894.39,48546,16.5,73810.8,17.63,-13.55,-16.51,0,*44
1530536895.66,48547,16.5,73812.5,17.65,-12.53,-15.39,0,*49
1530536896.86,48548,16.5,73812.5,17.65,-16.45,-19.75,0,*41
1530536898.07,48549,16.5,73810.0,17.65,-16.89,-19.95,0,*4E
1530536899.35,48550,16.5,73810.8,17.63,-14.97,-17.63,0,*4A
1530536900.6,48551,16.5,73810.0,17.63,-15.89,-18.83,0,*44
1530536901.8,48552,16.5,73808.0,17.61,-13.69,-16.37,0,*4C
1530536903.08,48553,16.5,73808.8,17.63,-11.81,-14.51,0,*49
1530536904.29,48554,16.5,73806.8,17.61,-13.73,-16.93,0,*4F
1530536905.52,48555,16.5,73810.5,17.61,-15.43,-18.65,0,*4C
1530536906.75,48556,16.5,73808.8,17.61,-16.31,-19.71,0,*4D
1530536907.99,48557,16.5,73806.0,17.57,-18.21,-22.17,0,*4E
1530536909.24,48558,16.5,73806.8,17.49,-18.93,-22.73,0,*45
1530536910.53,48559,16.5,73814.8,17.43,-17.55,-21.23,0,*4D
1530536911.8,48560,16.5,73808.5,17.39,-16.69,-20.15,0,*40
1530536913.06,48561,16.5,73812.3,17.35,-17.49,-21.33,0,*4B
1530536914.32,48562,16.5,73808.5,17.31,-17.73,-21.67,0,*44
1530536915.6,48563,16.5,73812.3,17.27,-16.13,-19.61,0,*48
1530536916.81,48564,16.5,73810.3,17.21,-15.25,-18.73,0,*4D